Reflectivity
-20 -20 -20 -20 -20 -20 -20 -20 -20 -20 -20 -20 -20 -20 -20 -20 -20 -20 -20 -20 -20 -20 -20 -20 -20 -20 -20 -20 -20 -20 -20 -20
-20 -20 -20 -20 -20 -20 -20 -20 -20 -20 -20 -20 -20 -20 -20 -20 -20 -20 -20 -20 -20 -20 -20 -20 -20 -20 -20 -20 -20 -20 -20 -20
-20 -20 -20 -20 -20 -20 -20 -20 -20 -20 -20 -20 -20 -20 -20 -20 -20 -20 -20 -20 -20 -20 -20 -20 -20 -20 -20 -20 -20 -20 -20 -20
-20 -20 -20 -20 -20 -20 -20 -20 -20 -20 -20 -20 -20 -20 -20 -20 -20 -20 -20 -20 -20 -20 -20 -20 -20 -20 -20 -20 -20 -20 -20 -20
-20 -1 -20 -20 -20 -20 -20 -20 -20 -20 -20 -20 -20 -20 -20 -20 -20 -20 -20 -20 -20 -20 -20 -20 -20 -20 -20 -20 -20 -20 -20 -20
-20 -19 -20 -19 -20 -15 -20 -20 -20 -20 -20 -20 -20 -20 -20 -20 -20 -20 -20 -20 -20 -20 -20 -20 -20 -20 -20 -20 -20 -20 -20 -20
-20 -20 -20 -20 -20 19 -9 -3 -20 -20 -20 -20 -20 -20 -20 -20 -20 -20 -20 -20 -20 -20 -20 -20 -20 -20 -20 -20 -20 -20 -20 -20
-20 -20 -20 -20 -20 3 -4 -11 -20 -20 -20 -20 -20 -20 -20 -20 -20 -20 -20 -20 -20 -20 -20 -20 -20 -20 -20 -20 -20 -20 -20 -20
-20 -20 -20 -20 -20 -20 -20 -20 -20 -20 -20 -20 -20 -20 -20 -20 -20 -20 -20 -20 -20 -20 -20 -20 -20 -20 -20 -20 -20 -20 -20 -20
-16 -16 -17 -20 -20 -20 -20 -20 -20 -20 -20 -20 -20 -20 -20 -20 -20 -20 -20 -20 5 -20 -20 -20 -20 -20 -20 -20 -20 -20 -20 -20
-20 -20 -20 -20 -20 -20 -20 -20 -20 -20 -20 -20 -20 -20 -20 -20 -20 -20 -20 -16 -6 -11 10 -20 -20 -20 -20 -20 -20 -20 -20 -20
-20 -20 -20 -20 -20 -20 -20 -20 -20 -20 -20 -20 -20 -20 -20 -20 -20 -20 -19 2 -20 -11 -20 -20 -20 -20 -20 -20 -20 -20 -20 -20
-20 -20 -20 -20 -20 -20 -20 -20 -20 -20 -20 -20 -20 -20 -20 -20 -20 -20 -17 -16 -20 -18 -20 -20 -20 -20 -20 -20 -20 -20 -20 -20
-20 -20 -20 -20 -20 -20 -20 -20 -20 -20 -20 -20 -20 -20 -20 -20 -20 -7 -14 -19 -20 -3 -2 -20 -20 -20 -20 -20 -20 -20 -20 -20
-20 -20 -20 -20 -20 -20 -20 -20 -20 -20 -20 -20 -20 -20 -20 -15 -19 -2 -19 -20 -19 -2 -20 -18 -20 -20 -10 5 -20 -20 -18 -20
-20 -20 -20 -20 -20 -20 -20 9 -20 -20 -20 -20 -20 -20 -20 -20 -7 -3 -3 -20 -17 -9 -18 -20 -12 -4 3 0 -20 -3 -10 -20
-20 -20 -20 -20 14 12 17 -3 -20 -20 -20 -20 -20 -20 -20 -20 -7 -5 -18 4 -1 10 8 11 6 -6 -20 -20 -0 -17 -20 -20
-20 -20 -20 -20 -20 4 -20 -20 -20 -20 -20 -20 -20 -20 -20 -20 -20 7 16 7 -2 -6 -2 -11 -16 -20 -20 -2 -3 -20 -20 -20
-20 -20 -20 -20 -20 -20 -20 -20 -20 -20 -20 -20 -20 -20 -20 -20 6 18 19 5 2 -20 -20 -20 -20 -20 -14 -20 -20 -20 -20 -20
Wind_Speed
13 16 17 16 15 10 12 8 8 7 6 5 5 4 4 4 5 5 6 5 6 6 4 4 4 3 4 3 4 3 1 1
12 15 17 15 12 15 13 11 8 6 4 5 3 5 4 4 5 7 7 6 6 6 4 4 4 3 2 3 1 2 3 3
11 14 17 18 14 14 14 11 9 7 6 3 4 6 3 5 5 5 6 6 6 5 5 4 5 3 4 3 2 2 1 2
13 14 19 17 16 16 15 13 12 7 10 8 5 5 4 3 3 3 4 7 6 7 6 5 5 4 3 3 2 3 1 2
11 9 11 17 14 14 14 14 12 10 10 10 13 5 6 3 4 4 4 6 6 6 6 6 5 3 5 3 3 3 3 4
13 10 10 11 12 10 10 13 9 9 9 10 10 9 7 4 4 7 6 5 6 6 6 6 5 4 5 6 6 6 4 3
11 9 12 9 6 8 12 13 8 9 9 8 12 14 9 6 5 5 3 3 3 5 5 5 4 5 4 5 5 6 4 3
12 13 12 13 10 10 11 12 10 11 11 9 9 9 9 9 6 4 4 2 2 3 3 4 3 2 3 4 4 3 2 1
13 14 12 12 12 12 11 12 11 11 9 8 7 8 5 5 5 4 3 2 2 3 3 5 5 2 4 4 1 2 0 1
13 9 14 14 13 9 10 12 9 10 9 7 7 6 7 6 7 6 4 4 3 4 4 4 3 4 1 3 1 4 2 3
8 11 12 12 12 8 9 9 12 9 8 7 6 6 6 6 6 6 5 5 3 2 3 3 4 4 3 3 2 3 1 0
11 13 13 14 13 11 9 9 11 9 8 7 7 6 6 6 6 5 5 4 2 1 3 3 4 5 4 3 3 3 6 4
13 15 15 14 14 13 12 10 13 11 9 7 7 6 6 6 5 5 5 4 2 2 2 3 5 4 2 2 3 1 4 4
13 12 16 16 14 13 12 12 13 13 12 10 8 7 6 6 6 6 5 4 3 0 3 5 6 4 2 2 3 3 3 3
13 13 13 16 17 16 15 11 14 13 11 11 9 7 7 6 5 6 5 4 4 2 5 6 6 4 3 5 4 3 3 4
7 9 9 13 13 11 10 8 12 12 11 11 9 8 7 7 6 4 3 3 4 6 7 7 6 6 4 6 5 4 3 2
7 5 8 12 12 10 10 10 11 12 11 8 7 8 8 7 6 3 4 6 7 7 7 7 6 4 9 9 7 4 2 1
7 6 7 7 10 11 13 12 11 11 9 9 11 11 9 8 6 5 9 10 8 7 7 7 6 6 12 11 10 4 2 2
6 3 4 7 6 8 8 11 11 10 9 11 8 10 9 5 2 10 6 4 6 5 7 7 5 6 14 12 9 4 2 3
Wind_Direction
149 140 143 142 150 141 132 132 132 125 115 132 114 124 104 119 98 83 86 92 79 68 69 53 52 59 28 21 20 356 69 245
160 143 150 144 148 148 138 143 158 135 157 133 143 128 131 99 95 105 93 91 78 74 57 37 40 50 16 23 78 19 321 359
166 144 154 158 151 156 147 158 171 178 169 152 147 145 132 132 120 121 114 94 72 73 50 36 23 6 8 15 36 327 349 31
175 158 157 163 161 164 162 169 186 163 138 130 107 89 78 89 104 89 80 86 80 80 73 61 34 30 3 333 344 106 180 350
164 155 148 162 167 166 162 174 136 145 145 137 148 145 133 126 138 131 102 87 78 83 80 61 42 9 346 303 2 45 98 60
162 153 137 159 155 152 158 135 128 131 125 129 127 122 123 139 121 104 93 83 86 80 71 48 25 357 342 63 62 67 68 102
146 134 130 141 125 128 141 131 114 109 110 116 123 132 135 119 118 113 108 104 84 70 56 54 15 27 77 89 82 67 64 73
141 146 147 150 142 141 136 122 125 118 112 116 126 132 126 128 138 134 115 104 81 55 61 42 9 114 112 102 88 71 108 115
157 166 159 136 143 146 132 135 134 130 125 132 130 130 135 131 128 122 111 88 77 45 54 39 0 242 118 126 101 313 242 266
158 143 140 143 149 151 145 142 139 139 138 134 139 136 129 132 126 105 106 91 60 23 18 16 353 339 189 162 238 266 199 235
150 152 152 150 154 155 147 143 147 147 140 136 138 134 133 129 122 122 124 113 92 356 12 350 333 346 345 292 323 252 273 117
162 162 165 164 164 163 160 144 147 145 137 139 137 152 143 138 138 143 140 121 124 45 11 323 311 298 335 61 22 11 86 90
170 167 167 170 170 169 168 149 153 150 148 143 155 158 158 158 162 152 136 153 121 95 314 293 285 298 165 11 313 346 138 121
180 170 174 173 172 169 169 154 156 155 157 154 160 168 170 179 161 156 151 151 148 76 288 273 276 221 223 308 355 77 77 77
191 191 180 173 172 169 171 158 156 162 158 160 161 174 177 177 156 150 154 170 162 231 269 266 263 214 145 117 113 80 57 60
249 206 163 165 164 157 159 161 162 158 153 159 169 173 142 134 144 127 202 197 209 235 242 255 260 206 165 154 148 141 135 24
21 132 161 163 164 159 165 172 163 150 152 157 141 117 110 110 87 49 310 259 246 236 245 240 246 207 168 159 149 146 94 4
43 79 174 163 158 174 178 168 150 149 140 129 122 129 109 86 47 318 257 250 247 238 234 239 229 170 165 155 149 149 164 293
24 35 131 174 183 165 151 146 144 134 119 112 99 94 85 106 333 267 264 300 288 258 248 239 178 185 172 162 143 140 166 261